Weather History for Tacoma, WA

Change the Weather History Date:

Sunday, October 17, 2010

  Actual Average Record
Temperature  
Mean Temperature 43 °F -  
Max Temperature 56 °F 58 °F 73 °F (2002)
Min Temperature 30 °F 39 °F 31 °F (2010)
Degree Days  
Heating Degree Days 22    
Moisture  
Dew Point 34 °F    
Average Humidity 96    
Maximum Humidity 100    
Minimum Humidity 54    
Precipitation  
Precipitation 0.00 in - - ()
Sea Level Pressure  
Sea Level Pressure 30.26 in    
Wind  
Wind Speed 1 mph (South)    
Max Wind Speed 8 mph    
Max Gust Speed -    
Visibility 3 miles    
Events Fog    
Averages and records for this station are not official NWS values.
T = Trace of Precipitation, MM = Missing Value Source: NWS Daily Summary

Daily Weather History Graph

Daily Weather History Graph

Search for Another Location

Airport:

Trip Planner

Search our weather history database for the weather conditions in past years. The results will help you decide how hot, cold, wet, or windy it might be!

Date:

Astronomy

Oct. 17, 2010 Rise Set
Actual Time 7:31 AM PDT 6:18 PM PDT
Civil Twilight 7:00 AM PDT 6:49 PM PDT
Nautical Twilight 6:24 AM PDT 7:24 PM PDT
Astronomical Twilight 5:49 AM PDT 8:00 PM PDT
Moon 3:57 PM PDT (10/17) 2:08 AM PDT (10/17)
Length of Visible Light 11h 49m
Length of Day
10h 47m
Waxing Gibbous, 76% of the Moon is Illuminated
Oct 17
Waxing Gibbous
Oct 22
Full
Oct 30
Last Quarter
Nov 5
New
Nov 13
First Quarter

Hourly Weather History & Observations

Time (PDT) Temp. Windchill Dew Point Humidity Pressure Visibility Wind Dir Wind Speed Gust Speed Precip Events Conditions
12:55 AM 34.5 °F - 33.6 °F 97% 30.23 in 9.0 mi Calm Calm - N/A   Clear
1:55 AM 32.9 °F - 31.6 °F 95% 30.23 in 10.0 mi Calm Calm - N/A   Clear
2:55 AM 31.5 °F - 30.2 °F 95% 30.25 in 10.0 mi Calm Calm - N/A   Clear
3:55 AM 31.1 °F - 30.0 °F 96% 30.24 in 10.0 mi Calm Calm - N/A   Clear
4:16 AM 30.2 °F 26.7 °F 30.2 °F 100% 30.24 in 2.5 mi South 3.5 mph - N/A   Clear
4:18 AM 30.2 °F 26.7 °F 30.2 °F 100% 30.24 in 2.0 mi South 3.5 mph - N/A   Clear
4:20 AM 30.2 °F 26.7 °F 30.2 °F 100% 30.24 in 1.8 mi South 3.5 mph - N/A   Clear
4:23 AM 30.2 °F 26.7 °F 30.2 °F 100% 30.24 in 2.0 mi South 3.5 mph - N/A   Clear
4:25 AM 30.2 °F 26.7 °F 30.2 °F 100% 30.24 in 2.5 mi South 3.5 mph - N/A   Clear
4:27 AM 30.2 °F 26.7 °F 28.4 °F 93% 30.24 in 3.0 mi South 3.5 mph - N/A   Clear
4:55 AM 31.8 °F - 31.1 °F 97% 30.24 in 10.0 mi Calm Calm - N/A   Clear
4:56 AM 32.0 °F - 32.0 °F 100% 30.24 in 10.0 mi Calm Calm - N/A   Partly Cloudy
5:09 AM 32.0 °F 28.7 °F 30.2 °F 93% 30.24 in 2.5 mi South 3.5 mph - N/A   Mostly Cloudy
5:10 AM 32.0 °F - 30.2 °F 93% 30.24 in 2.0 mi Calm Calm - N/A   Mostly Cloudy
5:11 AM 30.2 °F - 30.2 °F 100% 30.24 in 1.5 mi Calm Calm - N/A   Mostly Cloudy
5:17 AM 30.2 °F - 30.2 °F 100% 30.24 in 1.2 mi Calm Calm - N/A   Mostly Cloudy
5:19 AM 30.2 °F 26.7 °F 30.2 °F 100% 30.24 in 1.8 mi South 3.5 mph - N/A   Mostly Cloudy
5:20 AM 32.0 °F 28.7 °F 30.2 °F 93% 30.24 in 2.0 mi South 3.5 mph - N/A   Mostly Cloudy
5:22 AM 30.2 °F 26.7 °F 30.2 °F 100% 30.24 in 2.5 mi South 3.5 mph - N/A   Overcast
5:24 AM 30.2 °F 26.7 °F 30.2 °F 100% 30.24 in 2.0 mi South 3.5 mph - N/A   Overcast
5:28 AM 30.2 °F - 30.2 °F 100% 30.24 in 1.0 mi Calm Calm - N/A   Overcast
5:30 AM 30.2 °F - 30.2 °F 100% 30.24 in 0.8 mi Calm Calm - N/A   Mist
5:33 AM 30.2 °F - 30.2 °F 100% 30.24 in 0.8 mi Calm Calm - N/A   Mist
5:35 AM 30.2 °F - 30.2 °F 100% 30.25 in 0.5 mi Calm Calm - N/A Fog Light Freezing Fog
5:55 AM 31.1 °F - 30.4 °F 97% 30.25 in 0.5 mi Calm Calm - N/A Fog Light Freezing Fog
6:26 AM 32.0 °F - 32.0 °F 100% 30.26 in 0.5 mi Calm Calm - N/A Fog Fog
6:28 AM 32.0 °F - 32.0 °F 100% 30.26 in 0.5 mi Calm Calm - N/A Fog Fog
6:33 AM 32.0 °F - 32.0 °F 100% 30.26 in 1.0 mi Calm Calm - N/A   Overcast
6:35 AM 32.0 °F - 32.0 °F 100% 30.26 in 1.2 mi Calm Calm - N/A   Overcast
6:37 AM 32.0 °F - 32.0 °F 100% 30.26 in 1.8 mi Calm Calm - N/A   Overcast
6:38 AM 32.0 °F - 32.0 °F 100% 30.26 in 2.0 mi Calm Calm - N/A   Overcast
6:40 AM 32.0 °F - 32.0 °F 100% 30.26 in 2.5 mi Calm Calm - N/A   Overcast
6:43 AM 32.0 °F - 32.0 °F 100% 30.24 in 3.0 mi Calm Calm - N/A   Overcast
6:55 AM 32.5 °F - 31.6 °F 96% 30.26 in 3.0 mi Calm Calm - 0.00 in   Overcast
7:00 AM 32.0 °F - 32.0 °F 100% 30.26 in 2.5 mi Calm Calm - N/A   Overcast
7:01 AM 32.0 °F - 32.0 °F 100% 30.25 in 1.8 mi Calm Calm - N/A   Overcast
7:02 AM 32.0 °F - 32.0 °F 100% 30.25 in 1.5 mi Calm Calm - N/A   Overcast
7:04 AM 32.0 °F - 32.0 °F 100% 30.25 in 1.0 mi Calm Calm - N/A   Mist
7:06 AM 32.0 °F - 32.0 °F 100% 30.25 in 0.8 mi Calm Calm - N/A   Mist
7:09 AM 32.0 °F - 32.0 °F 100% 30.25 in 0.8 mi Calm Calm - N/A   Mist
7:15 AM 32.0 °F - 32.0 °F 100% 30.26 in 0.5 mi Calm Calm - N/A Fog Fog
7:19 AM 32.0 °F - 32.0 °F 100% 30.26 in 0.2 mi Calm Calm - N/A Fog Fog
7:21 AM 32.0 °F - 32.0 °F 100% 30.26 in 0.2 mi Calm Calm - N/A Fog Fog
7:37 AM 32.0 °F 28.7 °F 32.0 °F 100% 30.25 in 0.2 mi South 3.5 mph - N/A Fog Fog
7:39 AM 32.0 °F 28.7 °F 32.0 °F 100% 30.26 in 0.2 mi South 3.5 mph - N/A Fog Fog
7:40 AM 32.0 °F 28.7 °F 32.0 °F 100% 30.26 in 0.5 mi South 3.5 mph - N/A Fog Fog
7:42 AM 32.0 °F - 32.0 °F 100% 30.26 in 0.5 mi Calm Calm - N/A Fog Fog
7:45 AM 32.0 °F - 32.0 °F 100% 30.26 in 0.8 mi Calm Calm - N/A   Mist
7:47 AM 32.0 °F - 32.0 °F 100% 30.26 in 1.0 mi Calm Calm - N/A   Mist
7:49 AM 32.0 °F - 32.0 °F 100% 30.26 in 0.8 mi Calm Calm - N/A   Mist
7:53 AM 32.0 °F 28.7 °F 32.0 °F 100% 30.26 in 0.5 mi South 3.5 mph - N/A Fog Fog
7:55 AM 32.4 °F - 32.0 °F 99% 30.26 in 0.5 mi Calm Calm - N/A Fog Fog
7:59 AM 32.0 °F 28.7 °F 32.0 °F 100% 30.26 in 0.8 mi South 3.5 mph - N/A   Mist
8:04 AM 32.0 °F 28.7 °F 32.0 °F 100% 30.26 in 1.2 mi SSE 3.5 mph - N/A   Partly Cloudy
8:07 AM 32.0 °F - 32.0 °F 100% 30.26 in 1.8 mi Calm Calm - N/A   Clear
8:08 AM 32.0 °F - 32.0 °F 100% 30.26 in 2.0 mi Calm Calm - N/A   Clear
8:10 AM 32.0 °F - 32.0 °F 100% 30.26 in 4.0 mi Calm Calm - N/A   Partly Cloudy
8:42 AM 33.8 °F - 32.0 °F 93% 30.27 in 2.0 mi Calm Calm - N/A   Overcast
8:45 AM 33.8 °F - 32.0 °F 93% 30.27 in 1.2 mi Calm Calm - N/A   Mostly Cloudy
8:46 AM 33.8 °F - 32.0 °F 93% 30.27 in 1.0 mi Calm Calm - N/A   Mostly Cloudy
8:48 AM 33.8 °F - 32.0 °F 93% 30.27 in 0.8 mi Calm Calm - N/A   Mostly Cloudy
8:53 AM 33.8 °F - 33.8 °F 100% 30.27 in 0.5 mi Calm Calm - N/A Fog Fog
8:56 AM 33.8 °F - 33.8 °F 100% 30.27 in 0.2 mi Calm Calm - N/A Fog Fog
9:05 AM 33.8 °F - 33.8 °F 100% 30.28 in 0.2 mi Calm Calm - N/A Fog Fog
9:15 AM 35.6 °F - 35.6 °F 100% 30.28 in 0.2 mi Calm Calm - N/A Fog Fog
9:19 AM 35.6 °F - 35.6 °F 100% 30.28 in 0.2 mi Calm Calm - N/A Fog Fog
9:52 AM 37.4 °F - 37.4 °F 100% 30.28 in 0.2 mi Calm Calm - N/A Fog Fog
9:55 AM 38.5 °F - 38.3 °F 99% 30.28 in 0.2 mi Calm Calm - N/A Fog Fog
10:02 AM 39.2 °F 37.0 °F 39.2 °F 100% 30.28 in 0.2 mi NNW 3.5 mph - N/A Fog Fog
10:15 AM 39.2 °F - 39.2 °F 100% 30.28 in 0.2 mi Calm Calm - N/A Fog Fog
10:19 AM 39.2 °F - 39.2 °F 100% 30.28 in 0.2 mi Calm Calm - N/A Fog Fog
10:21 AM 41.0 °F - 39.2 °F 93% 30.28 in 0.2 mi Calm Calm - N/A Fog Fog
10:23 AM 41.0 °F - 39.2 °F 93% 30.28 in 0.2 mi Calm Calm - N/A Fog Fog
10:30 AM 41.0 °F - 41.0 °F 100% 30.29 in 0.2 mi Calm Calm - N/A Fog Fog
10:41 AM 41.0 °F - 41.0 °F 100% 30.29 in 0.2 mi Calm Calm - N/A Fog Fog
10:51 AM 41.0 °F - 41.0 °F 100% 30.28 in 0.5 mi Calm Calm - N/A Fog Fog
10:54 AM 42.8 °F - 41.0 °F 93% 30.28 in 0.5 mi Calm Calm - N/A Fog Fog
10:55 AM 42.1 °F - 41.7 °F 99% 30.28 in 0.5 mi Calm Calm - N/A Fog Fog
10:56 AM 42.8 °F - 41.0 °F 93% 30.28 in 0.8 mi Calm Calm - N/A   Overcast
11:01 AM 42.8 °F - 42.8 °F 100% 30.28 in 1.2 mi Calm Calm - N/A   Overcast
11:16 AM 42.8 °F - 42.8 °F 100% 30.28 in 1.8 mi Calm Calm - N/A   Scattered Clouds
11:19 AM 42.8 °F 41.1 °F 42.8 °F 100% 30.28 in 2.0 mi Variable 3.5 mph - N/A   Scattered Clouds
11:36 AM 44.6 °F - 44.6 °F 100% 30.28 in 2.5 mi Calm Calm - N/A   Clear
11:45 AM 46.4 °F - 46.4 °F 100% 30.28 in 2.0 mi Calm Calm - N/A   Clear
11:49 AM 46.4 °F - 46.4 °F 100% 30.28 in 2.5 mi Calm Calm - N/A   Clear
1:55 PM 54.9 °F - 40.1 °F 58% 30.26 in 4.0 mi NNW 8.1 mph - N/A   Haze
2:55 PM 56.1 °F - 39.7 °F 54% 30.24 in 10.0 mi NNE 6.9 mph - N/A   Clear
4:55 PM 56.1 °F - 40.5 °F 56% 30.22 in 10.0 mi North 5.8 mph - N/A   Clear
5:55 PM 53.1 °F - 39.0 °F 59% 30.22 in 10.0 mi North 5.8 mph - N/A   Clear
6:55 PM 46.6 °F - 39.4 °F 76% 30.24 in 10.0 mi Calm Calm - N/A   Clear
7:55 PM 41.5 °F - 37.8 °F 86% 30.23 in 10.0 mi Calm Calm - N/A   Clear
8:55 PM 40.5 °F - 37.6 °F 89% 30.24 in 10.0 mi Calm Calm - N/A   Clear
9:55 PM 40.5 °F - 36.5 °F 86% 30.25 in 10.0 mi Calm Calm - N/A   Clear
10:55 PM 38.1 °F - 36.3 °F 93% 30.26 in 10.0 mi Calm Calm - N/A   Clear
11:55 PM 37.9 °F - 36.3 °F 94% 30.27 in 10.0 mi Calm Calm - N/A   Clear